Location: Unspecified
(0.0000°N, 0.0000°E)
Time: 07:40:35
(UTC+00:00)

Vanguard 2 Rocket - Pass Details

Date: 09 October 2023
Orbit: 552 x 3312 km, 32.9° (Epoch: 06 December)

Event Time Altitude Azimuth Distance (km) Brightness Sun altitude
Rises 09:13:02 0° 313° (NW) 5,172 10.4 51.0°
Reaches altitude 10° 09:19:12 10° 338° (NNW) 4,802 10.5 52.5°
Maximum altitude 09:25:26 14° 4° (N) 5,022 10.8 54.0°
Drops below altitude 10° 09:32:48 10° 30° (NNE) 5,818 11.3 55.9°
Sets 09:42:22 0° 52° (NE) 7,213 11.8 58.2°
